Hourly Data Report for April 18, 2021

NANAIMO A
BRITISH COLUMBIA
Current Station Operator: NAVCAN

49°03'16.000" N
123°52'12.000" W
28.00 m
1025365
YCD

Download Data

Hourly Data (April 2021)
Hourly Data Report for April 18, 2021
TIME
LST
Temp Definition
°C
Dew Point Definition
°C
Rel Hum Definition
%
Precip. Amount Definition
mm

Wind Dir Definition
10's deg

Wind Spd Definition
km/h
Visibility Definition
km
Stn Press Definition
kPa
Hmdx Definition


Wind Chill Definition


Weather Definition


00:00 10.1 3.4 63 LegendMM 20 4 LegendMM 101.81     LegendNANA
01:00 9.7 3.5 65 LegendMM 24 3 LegendMM 101.84     LegendNANA
02:00 7.9 2.9 70 LegendMM 19 4 LegendMM 101.87     LegendNANA
03:00 8.7 3.2 68 LegendMM 22 5 LegendMM 101.88     LegendNANA
04:00 7.1 2.9 75 LegendMM 22 4 LegendMM 101.89     LegendNANA
05:00 6.4 2.9 78 LegendMM 6 1 LegendMM 101.87     LegendNANA
06:00 7.0 3.1 77 LegendMM 18 5 LegendMM 101.88     LegendNANA
07:00 10.8 4.3 64 LegendMM 15 3 LegendMM 101.88     LegendNANA
08:00 15.0 5.1 51 LegendMM 10 3 LegendMM 101.86     LegendNANA
09:00 17.0 5.2 45 LegendMM 3 3 LegendMM 101.82     LegendNANA
10:00 19.0 6.4 44 LegendMM 7 8 LegendMM 101.81     LegendNANA
11:00 19.6 6.5 42 LegendMM 16 9 LegendMM 101.78     LegendNANA
12:00 21.2 7.3 40 LegendMM 10 8 LegendMM 101.71     LegendNANA
13:00 21.6 7.2 39 LegendMM 4 12 LegendMM 101.69     LegendNANA
14:00 22.3 8.8 42 LegendMM 7 8 LegendMM 101.65     LegendNANA
15:00 22.8 5.8 33 LegendMM 1 11 LegendMM 101.60     LegendNANA
16:00 23.2 5.5 31 LegendMM 8 4 LegendMM 101.55     LegendNANA
17:00 23.0 5.0 31 LegendMM 6 3 LegendMM 101.49     LegendNANA
18:00 20.3 6.3 40 LegendMM 36 11 LegendMM 101.46     LegendNANA
19:00 18.4 6.3 45 LegendMM 23 3 LegendMM 101.45     LegendNANA
20:00 16.2 6.4 52 LegendMM 25 9 LegendMM 101.51     LegendNANA
21:00 13.3 6.5 63 LegendMM 26 2 LegendMM 101.56     LegendNANA
22:00 10.5 5.7 72 LegendMM 30 3 LegendMM 101.64     LegendNANA
23:00 10.8 5.2 68 LegendMM 26 8 LegendMM 101.71     LegendNANA

Notes on Data Quality.

Legend

  • E = Estimated
  • M = Missing
  • NA = Not Available*
  • [empty] = Indicates an unobserved value
Date modified: